Location: Observatoire
(46.1952°N, 5.3391°E)
Time: 04:30:42
(UTC+01:00)

Explorer 7 - Pass Details

Date: 25 February 2026
Orbit: 430 x 542 km, 50.2° (Epoch: 7 March)

Event Time Altitude Azimuth Distance (km) Brightness Sun altitude
Rises 12:49:12 0° 227° (SW) 2,385 10.6 34.8°
Reaches altitude 10° 12:51:20 10° 220° (SW) 1,526 9.9 34.8°
Maximum altitude 12:54:37 44° 147° (SSE) 612 8.4 34.8°
Drops below altitude 10° 12:57:58 10° 74° (ENE) 1,563 9.1 34.8°
Sets 13:00:11 0° 68° (ENE) 2,452 9.9 34.8°
